Location: Nantong Television Tower
(32.0188°N, 120.8512°E)
Time: 13:04:08
(UTC+08:00)

Daily predictions for brighter satellites

Satellite Brightness Start Highest point End
(mag) Time Altitude Azimuth Time Altitude Azimuth Time Altitude Azimuth
H-2A R/B 3.5 18:47:03 10° WSW 18:50:31 52° S 19:07:22 10° ESE
EP 2 4.4 18:53:02 10° SSW 18:55:38 46° ESE 18:58:10 10° NE
Meteor 2-4 Rocket 4.3 18:54:12 10° N 18:59:42 41° ENE 19:05:15 10° SSE
Spot 2 Rocket 3.5 18:55:28 10° SSE 19:00:34 85° ENE 19:05:40 10° NNW
Cosmos 2278 4.4 18:56:33 10° SSE 19:01:28 32° ESE 19:06:25 10° NE
USA 186 3.4 18:59:52 10° ESE 19:01:59 17° ENE 19:04:03 10° NNE
NOSS 2-1 (E) 3.3 18:59:44 10° SSW 19:03:35 86° ESE 19:07:45 10° NNE
Cosmos 1633 2.5 19:00:56 10° S 19:04:36 80° E 19:08:15 10° N
OTV 4 2.3 19:02:33 10° WNW 19:05:05 25° N 19:07:36 10° NE
FREGAT/IRIS 4.1 19:03:11 10° S 19:06:10 41° W 19:09:09 10° NNW
Helios 1B rocket 4.1 19:08:27 10° N 19:12:19 39° WNW 19:16:08 10° SW
Cosmos 1821 Rocket 3.9 19:07:25 10° S 19:13:28 65° E 19:19:30 10° NNE
Cosmos 2369 4.2 19:09:00 10° S 19:14:06 36° ESE 19:19:14 10° NE
Meteor 1-23 Rocket 4.4 19:09:47 10° N 19:15:17 52° E 19:20:49 10° SSE
Resurs 1-3 3.7 19:12:07 10° SSE 19:16:29 85° WSW 19:20:54 10° NNW
Helios 1A 3.7 19:14:40 10° S 19:18:44 55° W 19:22:51 10° NNW
Cosmos 1892 Rocket 3.9 19:16:37 10° N 19:20:55 45° E 19:25:12 10° SSE
Cosmos 1455 Rocket 3.3 19:18:30 10° SSE 19:22:38 46° E 19:26:47 10° NNE
FengYun 1-2 T 4.3 19:17:18 10° SSE 19:22:57 89° WSW 19:28:37 10° NNW
EO 1 Delta rocket 4.0 19:19:26 10° NNE 19:24:05 58° E 19:29:26 10° S
Meteor 2-16 Rocket 4.4 19:19:52 10° S 19:25:53 67° E 19:31:54 10° NNE
Cosmos 1025 Rocket 3.1 19:24:22 10° N 19:28:44 83° W 19:33:03 10° S
Resurs 01 Rocket 2.9 19:25:37 10° S 19:29:47 42° W 19:34:00 10° NNW
Okean 2 3.6 19:27:50 10° N 19:31:54 50° E 19:35:20 14° SSE
ATLAS 3B CENTAUR R/B 1.0 19:33:36 10° WSW 19:35:05 24° S 19:35:05 24° S
Cosmos 1975 3.8 19:33:44 21° SE 19:35:26 28° E 19:38:58 10° NNE
Iridium 4 Rocket 4.3 19:35:19 10° NNE 19:39:40 28° E 19:41:04 24° ESE
Cosmos 968 Rocket 4.0 19:40:39 10° NNW 19:45:41 57° WSW 19:50:40 10° S
NOSS 3-4 (A) 4.2 19:39:56 10° NNW 19:46:46 48° NE 19:51:00 24° ESE
NOSS 3-4 (C) 4.2 19:40:04 10° NNW 19:46:54 47° NE 19:51:05 24° ESE
H-II Stage 2 4.0 19:46:39 10° SW 19:47:02 13° SSW 19:47:02 13° SSW
OAO 2 Rocket 3.2 19:43:54 10° WSW 19:48:56 81° SSE 19:52:10 23° ENE
ERS-1 Rocket 3.5 19:47:25 27° ESE 19:49:25 38° ENE 19:54:03 10° N
Cosmos 2123 Rocket 3.9 19:43:41 10° N 19:49:50 68° E 19:55:28 12° SSE
Meteor 1-5 Rocket 4.5 19:48:50 10° SSW 19:54:05 65° W 19:59:26 10° N
Cosmos 2227 Rocket 2.7 19:50:21 10° N 19:55:41 41° ENE 19:57:36 31° ESE
Delta 2 Rocket 4.2 19:52:51 10° WNW 19:58:20 61° N 20:00:48 29° ENE
FENGYUN 3A 4.2 19:53:51 10° S 19:59:07 59° W 20:04:24 10° NNW
CZ-3C R/B 3.5 19:07:19 10° W 20:01:41 50° SSW 20:06:36 27° SE
Cosmos 1459 Rocket 4.5 20:03:18 33° ESE 20:04:10 34° E 20:09:34 10° NNE
Cosmos 1939 Rocket 3.3 20:05:01 42° ENE 20:05:03 42° ENE 20:08:58 10° N
H-2A R/B 3.9 20:01:54 11° S 20:05:24 42° W 20:09:07 10° NNW
Cosmos 1656 3.6 20:01:10 10° S 20:06:43 60° ESE 20:12:12 10° NNE
Cosmos 2082 3.9 20:02:26 10° N 20:07:53 49° ENE 20:09:18 40° ESE
Cosmos 468 Rocket 4.2 20:09:56 43° E 20:09:56 43° E 20:14:44 10° NNE
Cosmos 1153 Rocket 4.4 20:04:45 10° S 20:10:58 76° E 20:17:08 10° N
Cosmos 2297 Rocket 2.7 20:06:22 10° N 20:11:40 40° ENE 20:12:32 37° E
Nimbus 7 Rocket 4.4 20:11:50 10° NNE 20:17:49 59° ESE 20:20:48 30° S
CZ-4 DEB 3.5 20:19:45 51° NW 20:19:45 51° NW 20:22:15 10° NNW
ALOS 4.2 20:17:58 10° SSW 20:21:55 27° W 20:25:52 10° NW
Cosmos 1802 Rocket 4.3 20:22:48 44° E 20:23:12 44° E 20:29:14 10° NNE
YAOGAN 11 4.3 20:25:42 47° SSW 20:26:53 70° WSW 20:31:23 10° NNW
Milstar 3 Cent rocket 4.1 20:06:54 10° W 20:28:17 76° S 20:33:28 37° ESE
Tiangong 1 4.0 20:27:19 10° NNW 20:28:31 12° N 20:28:59 11° N
Hubble Space Telescope 2.0 20:26:22 10° W 20:29:17 33° SW 20:29:17 33° SW
Cosmos 1447 Rocket 4.4 20:24:47 10° N 20:31:08 84° E 20:33:24 43° S
Cosmos 2298 Rocket 4.5 20:32:09 10° N 20:36:40 46° NE 20:36:40 46° NE
SPOT 5 3.3 20:38:29 52° NE 20:38:29 52° NE 20:42:44 10° N
Lacrosse 5 3.9 20:35:09 10° N 20:38:03 15° NE 20:38:07 15° NE
Cosmos 1066 Rocket 4.1 20:34:50 10° N 20:40:29 68° E 20:40:30 68° E
OTV 4 3.4 20:39:10 10° NW 20:40:10 18° NW 20:40:10 18° NW
H-2A R/B 4.3 20:45:04 11° NE 20:45:04 11° NE 20:45:25 10° NNE
MetOp-A 4.4 20:44:58 53° NE 20:44:58 53° NE 20:49:32 10° N
Cosmos 2016 Rocket 4.2 20:46:46 51° ENE 20:46:46 51° ENE 20:51:51 10° NNE
Cosmos 1697 Rocket 2.6 20:44:01 31° SSW 20:46:51 82° WNW 20:52:31 10° NNE
Envisat 3.2 20:49:32 64° SW 20:49:51 66° WSW 20:54:54 10° NNW
H-2A R/B 3.2 20:52:15 38° NNW 20:52:15 38° NNW 20:54:50 10° NNW
Cosmos 2173 Rocket 4.0 20:57:30 56° SSW 20:58:57 78° W 21:05:19 10° N
Cosmos 2061 Rocket 4.1 21:01:28 55° SSW 21:02:49 73° W 21:09:07 10° N
DELTA 2 R/B (1) 4.3 20:58:34 10° WNW 21:03:45 46° N 21:03:45 46° N
Cosmos 2100 Rocket 4.4 21:04:42 40° SW 21:06:50 60° W 21:13:01 10° N
Cosmos 1980 Rocket 3.3 21:10:48 34° NNE 21:10:48 34° NNE 21:13:55 10° NNE
BREEZE-M TANK 4.1 21:03:16 10° NW 21:08:20 34° N 21:08:20 34° N
USA 215 4.2 21:10:36 33° NE 21:11:01 33° NE 21:16:42 10° NNW
ARGOS 4.2 21:17:20 38° N 21:17:20 38° N 21:20:38 10° N
Terra 4.4 21:29:08 13° NNE 21:29:08 13° NNE 21:29:45 10° N
Lacrosse 5 rocket 4.4 21:27:20 10° NW 21:27:30 11° NW 21:27:30 11° NW
Cosmos 2227 Rocket 4.1 21:35:16 10° NW 21:39:22 21° W 21:39:27 21° WSW
Cosmos 2297 Rocket 4.2 21:51:09 10° NW 21:54:21 21° W 21:54:21 21° W
